STARLINK-2258 (47860 NORAD) Tracking and Keplerian Element Data

This shows tracking and keplerian element data for the satellite.

Feedback or suggestion? Click here.




ElementValue
Catalog47860
NameSTARLINK-2258
Epoch Orbit195
Epoch Day173.91668981
Epoch Year2021
RAAN86.4575
Inclination53.0518
Eccentricity0.0001478
Argument of Perigee65.5819
Mean Anonmoly151.2966
Mean Motion15.06394253
Decay Rate4.56E-06
L11 47860U 21021A 21173.91668981 .00000456 00000-0 49490-4 0 9998
L22 47860 53.0518 86.4575 0001478 65.5819 151.2966 15.06394253 1951

Live tracking and technical data element details for STARLINK-2258 (NORAD 47860). STARLINK-2258 can be tracked NOW for your location showing map with azimuth and elevation plus other details from your city location.

Track the satellite on the map from your city or location and see movement details for azimuth, elevation, latitude, longitude, range, height, and movement on the map or in text.







IsCatalogInMostPopularTable: catalog: 47860, numindb: 46
Update: records affected: 1



GetName: 47860 STARLINK-2258

Hit Count: updated at: Thu, 24 Jun 2021 03:58:58 GMT